Location: Unspecified
(0.0000°N, 0.0000°E)
Time: 06:00:24
(UTC+00:00)

Vanguard 2 Rocket - Pass Details

Date: 09 October 2023
Orbit: 552 x 3312 km, 32.9° (Epoch: 06 December)

Event Time Altitude Azimuth Distance (km) Brightness Sun altitude
Rises 02:30:35 0° 207° (SSW) 2,725 - -48.8°
Reaches altitude 10° 02:33:11 10° 187° (S) 1,906 - -48.2°
Maximum altitude 02:36:12 19° 140° (SE) 1,580 - -47.5°
Exits shadow 02:39:52 10° 96° (E) 2,385 9.6 -46.5°
Drops below altitude 10° 02:39:53 10° 95° (E) 2,393 9.6 -46.5°
Sets 02:43:41 0° 78° (ENE) 3,737 10.7 -45.6°
